This is the latest recevied weather packets stored in our database for station/object KE8AFF-13. If no packets are shown the sender has not sent any weather packets the latest 10 day(s).
| Time | Temp. | Humidity | Pressure | Rain* | Wind** | Luminosity | Snow |
|---|---|---|---|---|---|---|---|
| 1777764072 | 7.22° C | 60% | 1017.5 hPa | 0 mm | - | 28 W/m² | - |
| 1777763769 | 7.22° C | 59% | 1017.6 hPa | 0 mm | - | 33 W/m² | - |
| 1777763467 | 7.22° C | 59% | 1017.7 hPa | 0 mm | - | 43 W/m² | - |
| 1777763165 | 7.22° C | 59% | 1017.5 hPa | 0 mm | - | 55 W/m² | - |
| 1777762863 | 7.22° C | 58% | 1017.6 hPa | 0 mm | - | 64 W/m² | - |
| 1777762558 | 7.22° C | 61% | 1017.6 hPa | 0 mm | - | 72 W/m² | - |
| 1777762255 | 7.22° C | 61% | 1017.6 hPa | 0 mm | - | 72 W/m² | - |
| 1777761951 | 7.22° C | 61% | 1017.6 hPa | 0 mm | - | 68 W/m² | - |
| 1777761649 | 7.22° C | 60% | 1017.5 hPa | 0 mm | - | 74 W/m² | - |
| 1777761346 | 7.22° C | 59% | 1017.6 hPa | 0 mm | - | 81 W/m² | - |
| 1777761045 | 7.22° C | 58% | 1017.6 hPa | 0 mm | - | 83 W/m² | - |
| 1777760741 | 7.22° C | 59% | 1017.4 hPa | 0 mm | - | 86 W/m² | - |
| 1777760437 | 7.22° C | 60% | 1017.4 hPa | 0 mm | - | 81 W/m² | - |
| 1777760128 | 7.22° C | 60% | 1017.6 hPa | 0 mm | - | 61 W/m² | - |
| 1777759826 | 7.22° C | 60% | 1017.7 hPa | 0 mm | - | 76 W/m² | - |
| 1777759521 | 6.67° C | 65% | 1017.6 hPa | 0 mm | - | 99 W/m² | - |
| 1777759218 | 6.67° C | 70% | 1017.6 hPa | 0 mm | - | 113 W/m² | - |
| 1777758915 | 7.22° C | 70% | 1017.5 hPa | 0 mm | - | 113 W/m² | - |
| 1777758612 | 6.67° C | 70% | 1017.6 hPa | 0 mm | - | 101 W/m² | - |
| 1777758309 | 6.67° C | 70% | 1017.5 hPa | 0 mm | - | 85 W/m² | - |
| 1777758006 | 6.67° C | 72% | 1017.4 hPa | 0 mm | - | 80 W/m² | - |
| 1777757703 | 6.67° C | 73% | 1017.5 hPa | 0 mm | - | 82 W/m² | - |
| 1777757401 | 6.67° C | 73% | 1017.7 hPa | 0 mm | - | 69 W/m² | - |
| 1777757099 | 6.67° C | 73% | 1017.5 hPa | 0 mm | - | 73 W/m² | - |
| 1777756796 | 6.67° C | 73% | 1017.3 hPa | 0 mm | - | 95 W/m² | - |
* Rain latest hour (hover to see other rain measurements)
** Current wind speed in m/s (hover to see current wind gust speed)